Regional Weather Roundup
Issued by NWS Pendleton, OR

Home | Current Version | Previous Version | Text Only | Print | Product List | Glossary On
Versions: 1 2 3 4 5 6 7 8 9 10 11 12 13 14 15 16 17 18 19 20 21 22 23 24 25 26 27 28 29 30 31 32 33 34 35 36 37 38 39 40 41 42 43 44 45 46 47 48 49 50
000
ASUS46 KPDT 261725
RWRPDT
PENDLETON REGIONAL WEATHER ROUNDUP
NATIONAL WEATHER SERVICE PENDLETON OREGON
1000 AM PDT SUN MAR 26 2017

NOTE: FAIR INDICATES FEW OR NO CLOUDS BELOW 12,000 FEET WITH NO
SIGNIFICANT WEATHER AND/OR OBSTRUCTIONS TO VISIBILITY.

# INDICATES UNOFFICIAL STATION AND DATA

WAZ520-261810-
EAST SLOPES OF WASHINGTON CASCADES

CITY            SKY/WX      TMP DP  RH  WIND    PRES   REMARKS
#CLE ELUM HS    N/A         36  31  82  CALM    29.84F
#CLE ELUM LAKE  N/A         33  31  92  CALM    29.87R
#GLENWOOD       N/A         37  36  96  CALM    29.90R
#NELSON 3SW     N/A         33  32  96  CALM    30.10F
#NILE           N/A         35  33  92  CALM    29.15F
#TEANAWAY 4NE   N/A         35  34  96  CALM    N/A
#TROUT LAKE 1NE N/A         37  36  96  CALM    29.91R
#TROUT LAKE 1E  N/A         36  35  96  CALM    29.89S
$$

WAZ521-261810-
SIMCOE HIGHLANDS

CITY            SKY/WX      TMP DP  RH  WIND    PRES   REMARKS
#BICKLETON HS   N/A         38  35  89  S12     29.90R WCI 30
#CENTERVILLE 1SWN/A         37  33  85  CALM    29.88S
#GOLDENDALE 1NE N/A         39  32  76  VRB2    N/A
#GOLDENDALE 4W  N/A         39  25  57  NE3     29.90F
#GOODNOE HILLS  N/A         41  36  82  NW3     29.81R
#LYLE 6NE       N/A         38  36  92  N2      29.87R
#PITT 4SE       N/A         37  35  92  CALM    29.93R
$$

WAZ026-261810-
KITTITAS VALLEY

CITY            SKY/WX      TMP DP  RH  WIND    PRES   REMARKS
ELLENSBURG AP   LGT RAIN    38  33  82  N3      29.87S
#ELLENSBURG CWU N/A         37  34  89  CALM    29.84F
#ELLENSBURG 3NE N/A         36  34  92  CALM    27.96S
#ELLENSBURG 1E  N/A         36  N/A N/A CALM    N/A
#ELLENSBURG 13S N/A         40  33  76  CALM    N/A
#KITTITAS 4N    N/A         39  33  79  E2      29.89S
#KITTITAS 3S    N/A         35  33  92  CALM    29.89F
#THORP 6N       N/A         36  33  89  E2      29.92F
$$

WAZ027-261810-
YAKIMA VALLEY

CITY            SKY/WX      TMP DP  RH  WIND    PRES   REMARKS
SUNNYSIDE AP    LGT DRIZZLE 42  37  82  CALM    29.89F
YAKIMA AIRPORT  LGT RAIN    43  34  70  W3      29.89S
YAKIMA-VAGABOND LGT RAIN SH 40  33  76  W3      29.86S
#DONALD 2NE     N/A         44  24  45  W2      28.74S
#GRANDVIEW      N/A         45  36  70  CALM    29.91S
#MABTON         N/A         43  39  86  W2      29.89S
#MOXEE 2E       N/A         40   0  18  S1      29.88R
#NACHES 2SW     N/A         39  35  85  CALM    29.87S
#TERRACE HTS    N/A         39  35  85  CALM    29.88R
#TOPPENISH      N/A         42  37  82  CALM    29.82S
#WEST VALLEY    N/A         41  36  82  CALM    29.88S
#W YAKIMA       N/A         39  34  82  CALM    29.90F
#WHITE SWAN 5E  N/A         41  37  86  CALM    29.91R
#WILEY CITY 3W  N/A         39  32  76  CALM    29.85S
$$

WAZ028-261810-
LOWER COLUMBIA BASIN...WASHINGTON

CITY            SKY/WX      TMP DP  RH  WIND    PRES   REMARKS
HANFORD         CLOUDY      41  36  82  N5      29.88F
PASCO           CLOUDY      46  38  73  NW3     29.89F
PROSSER AWOS    N/A         45  39  79  SW9     29.93R
RICHLAND AWOS   CLOUDY      46  40  79  NW5     29.90S
#BENTON CITY    N/A         45  39  79  CALM    29.81F
#CONNELL 5N     N/A         45  40  82  CALM    29.88F
#CONNELL 5NW    N/A         44  39  82  CALM    29.84F
#ELTOPIA 6NW    N/A         44  39  82  CALM    28.85F
#KAHLOTUS       N/A         43  38  82  SE5     29.87F
#KENNEWICK 3S   N/A         45  38  76  N1      29.89S
#PATERSON       N/A         44  39  82  NW1     29.89S
#SAGEMOOR 2W    N/A         45  38  76  N1      29.75F
#TOUCHET 2S     N/A         45  40  82  CALM    29.86F
#WEST PASCO     N/A         46  39  76  W1      29.87S
$$

WAZ029-261810-
FOOTHILLS OF THE BLUES...WASHINGTON

CITY            SKY/WX      TMP DP  RH  WIND    PRES   REMARKS
WALLA WALLA AP  PTCLDY      47  40  76  CALM    29.85F
#CLYDE 6NW      N/A         45  39  79  E1      29.87F
#DAYTON SCHOOL  N/A         47  34  60  CALM    29.88F
#LOWDEN 2SE     N/A         46  41  83  CALM    29.84F
#PLEASANT VIEW 1N/A         42  38  86  N2      29.91F
#PRESCOTT       N/A         47  41  79  CALM    29.86F
#WHITMAN COLLEGEN/A         48  39  71  CALM    29.91F
#WAITSBURG 5S   N/A         49  42  77  CALM    29.96F
#WAITSBURG 8N   N/A         52  N/A N/A CALM    29.79F
#WALLA WALLA 5E N/A         50  40  68  W1      N/A
#WALLA WALLA U  N/A         46  39  76  CALM    29.88F
#WHITMAN MISSIONN/A         46  43  89  CALM    29.88F
$$

WAZ030-261810-
BLUE MOUNTAINS...WASHINGTON

CITY            SKY/WX      TMP DP  RH  WIND    PRES   REMARKS
#DIXIE 5SE      N/A         50  34  54  SE9     29.75F
$$

ORZ009-041-WAZ024-261810-
COLUMBIA RIVER GORGE

CITY            SKY/WX      TMP DP  RH  WIND    PRES   REMARKS
HOOD RIVER AP   LGT DRIZZLE 41  41  100 CALM    29.90S
THE DALLES AP   LGT RAIN    44  41  89  CALM    29.91S
#ARLINGTON AIRPON/A         41  39  93  W3      29.93R
#CELILO DOT     N/A         44  39  82  CALM    N/A
#LYLE           N/A         43  40  89  S2      29.93S
#MOSIER 1S      N/A         42  36  79  CALM    29.88S
#MURDOCK        N/A         43  40  89  CALM    29.88S
#RUFUS DOT      N/A         44  40  86  CALM    N/A
#SMITHVILLE     N/A         43  41  93  N1      29.86F

$$

ORZ510-261810-
NORTH CENTRAL OREGON

CITY            SKY/WX      TMP DP  RH  WIND    PRES   REMARKS
#ANTELOPE       N/A         34  32  92  CALM    29.75F
#CHENOWITH 1W   N/A         38  37  96  E5      N/A
#COW CYN RST AREN/A         33  33  100 E3      N/A
#DUFUR          N/A         41  38  89  CALM    29.86S
#DUFUR 9E       N/A         36  34  92  SE7     29.94F
#GRASS VALLEY 1SN/A         38  37  96  S1      30.01F
#KENT DOT       N/A         37  33  85  N8      N/A
#MAUPIN SCHOOL  N/A         41  39  93  CALM    29.92F
#MORO SCHOOL    N/A         40  39  96  CALM    29.95S
#SHANIKO 4NW    N/A         32  31  96  S15     29.81F WCI 22
#TYGH VALLEY 2NEN/A         42  39  89  N2      29.88F
#WAPANITIA AIRPON/A         39  37  92  CALM    29.90F
#WASCO 5NE      N/A         40  37  89  CALM    29.91R
$$

ORZ511-261810-
CENTRAL OREGON

CITY            SKY/WX      TMP DP  RH  WIND    PRES   REMARKS
BEND AIRPORT    CLOUDY      39  36  89  SE5     29.83F
MADRAS AIRPORT  LGT DRIZZLE 37  37  100 SE5     29.86F
PRINEVILLE AP   CLOUDY      39  36  89  SE10    29.84F
REDMOND AIRPORT CLOUDY      40  34  79  SE9     29.84F
#ASHWOOD SCHOOL N/A         37  35  92  CALM    29.83F
#BEND 1SW       N/A         36  35  96  SW1     N/A
#BEND-AWBREY    N/A         38  36  92  S3      29.83F
#BEND-KIM LN    N/A         38  35  89  W1      29.78F
#CULVER         N/A         40  35  82  S5      29.78F
#CULVER 8W      N/A         40  39  96  SW1     29.85F
#POWELL BUTTE 3EN/A         35  34  96  E7      N/A
#POWELL BUTTE   N/A         38  36  92  S7      29.80F
#PRINEVILLE     N/A         37  34  89  E5      29.96F
#PRINEVILLE 3N  N/A         39  36  89  E8      29.87F
#WARM SPRINGS   N/A         41  38  89  CALM    29.83F

$$


ORZ509-261810-
EAST SLOPES OF OREGON CASCADES

CITY            SKY/WX      TMP DP  RH  WIND    PRES   REMARKS
SISTERS AWOS    N/A         36  34  92  CALM    29.81F
#BLUE BOX PASS  N/A         32  N/A N/A E3      N/A
#CAMP SHERMAN   N/A         35  33  92  CALM    29.95F
#LA PINE 4NW    N/A         34  31  89  CALM    29.90F
#LAVA BUTTE DOT N/A         34  33  96  CALM    N/A
#SISTERS 3N     N/A         38  32  79  CALM    29.91F
#SUNRIVER       N/A         35  34  96  CALM    29.87F
#TUMALO 3W      N/A         37  34  89  SE7     29.72F
#WANOGA BUTTE D N/A         28  28  100 W9      N/A

$$

ORZ044-261810-
LOWER COLUMBIA BASIN...OREGON

CITY            SKY/WX      TMP DP  RH  WIND    PRES   REMARKS
HERMISTON       PTCLDY      45  40  82  CALM    29.87S
#BOARDMAN SCHOOLN/A         44  40  86  SW5     29.92R
#BOARDMAN 8SW   N/A         43  40  89  SW5     29.92R
#I-84 EX 198 DOTN/A         48  39  71  CALM    N/A
#IONE SCHOOL    N/A         42  26  53  CALM    29.93R
#UMATILLA       N/A         45  37  73  CALM    29.81F
$$

ORZ507-261810-
NORTHERN FOOTHILLS OF THE BLUES

CITY            SKY/WX      TMP DP  RH  WIND    PRES   REMARKS
PENDLETON AIRPT MOCLDY      47  38  71  CALM    29.84F
#ADAMS 3WNW     N/A         49  40  71  CALM    29.86F
#ATHENA         N/A         48  38  68  NE1     29.89F
#CAYUSE         N/A         45  41  86  SW1     29.85F
#HELIX SCHOOL   N/A         50  38  63  CALM    29.87F
#HELIX 3N       N/A         50  36  58  SE3     29.82F
#HOLDMAN 5SE    N/A         48  38  68  CALM    29.85F
#HOLDMAN 6E     N/A         48  40  74  CALM    29.67F
#M-F FERNDALE   N/A         47  39  74  CALM    29.84F
#M-F GROVE ELEM N/A         48  37  65  S1      29.83F
#M-FREEWATER 5SEN/A         49  39  68  N2      29.85F
#PDT AQUATIC CTRN/A         45  41  86  CALM    29.88R
#PDT SUNRIDGE   N/A         45  40  82  CALM    29.86F
#PENDLETON 7NW  N/A         45  38  76  CALM    25.86F
#PILOT ROCK 1S  N/A         48  34  58  CALM    29.85F
#PILOT ROCK     N/A         50  40  68  N1      29.86F
#TUTUILLA       N/A         47  41  79  CALM    29.88S
#UMAPINE 2E     N/A         46  41  83  CALM    29.84F
#WESTON SCHOOL  N/A         47  34  60  E2      29.85F

$$

ORZ508-261810-
SOUTHERN FOOTHILLS OF THE BLUES

CITY            SKY/WX      TMP DP  RH  WIND    PRES   REMARKS
LEXINGTON       LGT RAIN    43  41  93  W3      29.92R
#AJAX           N/A         39  31  73  SE3     30.03F
#CONDON SCHOOL  N/A         38  36  92  SW7     29.83F
#CONDON 5W      N/A         35  33  92  S7      29.82F
#FOSSIL SCHOOL  N/A         39  36  89  CALM    29.82F
#HEPPNER EOC    N/A         42  38  86  W3      29.84R
#HEPPNER 4NE    N/A         41  37  86  SW7     29.91R
#LEXINGTON 2SE  N/A         45  40  82  CALM    29.85R
#OLEX 4N        N/A         41  38  89  SW3     29.89R
#RUGGS 5NE      N/A         40  39  96  W7      30.04R
#RUGGS 2SW      N/A         41  37  86  SW7     29.92R

$$

ORZ502-503-261810-
BLUE MOUNTAINS

CITY            SKY/WX      TMP DP  RH  WIND    PRES   REMARKS
MEACHAM         CLOUDY      42  30  62  CALM    29.84S
#BATTLE MTN DOT N/A         35  33  92  S3      N/A
#GREENHORN 9SW  N/A         42  33  70  SE1     26.08R
#HARDMAN 10S    N/A         32  31  96  S3      30.01S
#HEPPNER 15SE   N/A         38  33  82  CALM    29.89R
#LADD CYN SMT   N/A         41  34  76  E8      N/A
#LADD CREEK ODOTN/A         43  28  55  S6      N/A
#LONG CREEK HS  N/A         44  33  65  CALM    N/A
#N POWDER DOT   N/A         41  36  82  CALM    N/A
#PIKES PEAK     N/A         46  32  58  CALM    27.99S
#TOLLGATE       N/A         37  31  79  S2      29.72S
#TROY SCHOOL    N/A         43  37  79  CALM    29.79F
#UKIAH          N/A         37  36  96  CALM    29.82F
#WESTON 4E      N/A         48  36  63  E5      29.85S
$$

ORZ505-261810-
JOHN DAY BASIN

CITY            SKY/WX      TMP DP  RH  WIND    PRES   REMARKS
JOHN DAY        CLOUDY      46  31  56  S12     29.88R WCI 40
#JOHN DAY KJDY  N/A         43  N/A N/A CALM    29.26R
#ANTELOPE 9ESE  N/A         42  38  86  CALM    N/A
#DAYVILLE SCHOOLN/A         41  34  76  CALM    29.87R
#MITCHELL       N/A         41  38  89  CALM    30.02F
#MITCHELL 8NW   N/A         37  33  85  SW6     29.71F
#MONUMENT HS    N/A         41  36  82  CALM    29.86R
#MT. VERNON 5SE N/A         41  30  65  E5      29.83R
#SPRAY SCHOOL   N/A         42  N/A N/A CALM    N/A
#WINLOCK        N/A         40  38  92  CALM    29.85R
$$

ORZ506-261810-
OCHOCO AND JOHN DAY HIGHLANDS

CITY            SKY/WX      TMP DP  RH  WIND    PRES   REMARKS
#HORSE RIDGE DO N/A         38  31  76  SE13    N/A    WCI 30
#PAULINA SCHOOL N/A         35  33  92  W3      N/A
#PINE MTN OBS   N/A         29  28  96  S20G28  N/A    WCI 16
#PRAIRIE CITY   N/A         39  33  79  CALM    30.04R
#SENECA         N/A         38  N/A N/A W7      N/A
#SENECA 9NW     N/A         37  31  79  CALM    29.92R
$$

ORZ049-261810-
GRANDE RONDE VALLEY

CITY            SKY/WX      TMP DP  RH  WIND    PRES   REMARKS
LA GRANDE       MOCLDY      45  36  70  S12     29.87F WCI 39
#COVE           N/A         42  39  89  N1      29.91F
#COVE SCHOOL    N/A         43  37  79  CALM    29.90F
#COVE 6NW       N/A         41  38  89  CALM    29.93F
#ELGIN 3N       N/A         44  35  70  CALM    29.86F
#ELGIN 1E       N/A         40  36  85  CALM    N/A
#IMBLER SCHOOL  N/A         42  36  79  N1      29.85F
#ISLAND CITY 4N N/A         43  42  96  CALM    29.85F
#UNION 1S       N/A         46  39  76  SE7     29.91F
$$

ORZ050-261810-
WALLOWA COUNTY

CITY            SKY/WX      TMP DP  RH  WIND    PRES   REMARKS
JOSEPH AIRPORT  CLOUDY      43  34  70  N3      29.86F
#IMNAHA SCHOOL  N/A         46  39  76  NW3     29.90F
#IMNAHA 10S     N/A         42  38  86  S1      29.88F
#JOSEPH 3N      N/A         39  33  79  CALM    29.90F
#JOSEPH 3W      N/A         45  29  53  SE2     29.71S
#LOSTINE        N/A         36  33  89  N2      29.73F
#LOSTINE 3SE    N/A         38  35  89  N5      29.91F
#MT HOWARD 8000 N/A         27  N/A N/A S7      29.79F
#PROMISE 1S     N/A         36  33  89  S2      30.03F
#WALLOWA SCHOOL N/A         35  33  92  CALM    29.87F



$$



USA.gov is the U.S. government's official web portal to all federal, state and local government web resources and services.